Temp
-7 -6 -6 -7 -7 -7 -7 -8 -7 -7 -7 -7 -7 -6 -6 -6 -6 -6 -6 -6 -7 -7 -7 -7 -7 -7 -7 -7 -7 -7 -7 -7 -7 -7 -7 -7 -6 -6 -6 -6 -6 -6 -6 -7 -7
-7 -7 -7 -7 -7 -7 -7 -7 -7 -7 -7 -7 -6 -6 -6 -6 -6 -6 -6 -6 -6 -7 -7 -7 -8 -8 -8 -8 -8 -8 -8 -8 -7 -7 -7 -7 -7 -7 -6 -6 -6 -6 -6 -6 -7
-7 -7 -6 -6 -7 -7 -7 -7 -7 -7 -6 -6 -6 -6 -6 -5 -6 -6 -6 -6 -7 -7 -8 -8 -8 -8 -8 -8 -8 -8 -8 -8 -8 -8 -8 -7 -8 -7 -7 -7 -6 -7 -7 -7 -7
-7 -7 -7 -7 -7 -7 -7 -7 -6 -6 -6 -6 -6 -6 -6 -6 -6 -6 -6 -7 -8 -8 -9 -9 -9 -9 -9 -9 -9 -9 -9 -9 -9 -9 -8 -8 -8 -8 -8 -7 -7 -7 -8 -7 -7
-7 -7 -7 -7 -7 -7 -7 -6 -6 -6 -6 -6 -6 -6 -6 -6 -6 -6 -6 -7 -9 -9 -9 -10 -10 -10 -10 -10 -10 -10 -10 -10 -9 -9 -9 -9 -9 -8 -8 -9 -8 -8 -9 -9 -8
-7 -7 -7 -7 -7 -7 -7 -6 -6 -6 -6 -6 -6 -6 -6 -6 -6 -6 -7 -8 -8 -9 -10 -11 -11 -11 -11 -11 -11 -10 -10 -10 -10 -10 -9 -9 -9 -9 -10 -9 -10 -9 -9 -10 -10
-8 -7 -7 -7 -7 -7 -7 -6 -6 -6 -6 -6 -6 -6 -6 -6 -7 -7 -8 -8 -8 -9 -11 -12 -12 -12 -11 -11 -11 -11 -11 -11 -11 -11 -10 -11 -10 -10 -11 -11 -11 -11 -11 -11 -12
-8 -8 -8 -7 -7 -7 -7 -6 -6 -6 -6 -6 -6 -6 -6 -7 -8 -8 -8 -9 -9 -10 -11 -12 -12 -12 -12 -11 -11 -12 -12 -12 -12 -13 -13 -13 -13 -12 -13 -13 -13 -12 -12 -13 -13
-8 -8 -8 -8 -8 -7 -7 -7 -6 -6 -6 -6 -6 -7 -7 -9 -9 -9 -10 -10 -10 -11 -12 -12 -12 -12 -12 -12 -12 -12 -13 -13 -13 -13 -13 -13 -13 -14 -13 -13 -13 -13 -13 -13 -13
-9 -9 -9 -8 -8 -8 -7 -7 -7 -7 -7 -7 -7 -8 -9 -9 -10 -10 -11 -11 -12 -12 -12 -12 -13 -12 -12 -12 -12 -12 -13 -14 -13 -14 -13 -13 -13 -13 -13 -13 -13 -14 -13 -13 -13
-9 -9 -8 -8 -8 -8 -8 -7 -7 -7 -7 -8 -8 -9 -10 -10 -10 -10 -10 -12 -12 -12 -13 -13 -13 -12 -12 -13 -12 -13 -14 -14 -14 -14 -13 -13 -13 -13 -13 -14 -13 -14 -14 -13 -13
-9 -9 -8 -8 -8 -8 -8 -8 -8 -8 -8 -8 -8 -10 -10 -10 -10 -10 -11 -12 -12 -13 -13 -13 -13 -12 -13 -13 -13 -14 -14 -14 -14 -14 -13 -13 -13 -13 -13 -14 -13 -13 -13 -14 -14
-9 -9 -9 -8 -8 -8 -8 -8 -8 -8 -9 -9 -9 -10 -10 -11 -11 -10 -11 -12 -12 -13 -13 -13 -13 -13 -13 -13 -14 -14 -15 -14 -14 -14 -14 -13 -13 -14 -14 -14 -14 -15 -15 -15 -14
-9 -9 -9 -9 -9 -8 -9 -9 -9 -9 -9 -9 -10 -10 -11 -11 -10 -11 -11 -12 -12 -13 -13 -13 -13 -13 -13 -13 -14 -14 -14 -14 -14 -14 -14 -15 -13 -14 -15 -16 -17 -17 -16 -16 -15
-10 -9 -9 -9 -9 -9 -9 -9 -9 -9 -10 -10 -10 -11 -11 -11 -11 -11 -11 -12 -13 -14 -14 -13 -14 -14 -13 -13 -14 -14 -14 -14 -15 -15 -15 -15 -14 -14 -15 -17 -19 -18 -17 -17 -16
-10 -10 -10 -10 -9 -10 -10 -9 -9 -10 -10 -10 -11 -11 -12 -12 -12 -12 -12 -12 -13 -14 -14 -14 -14 -14 -14 -14 -14 -14 -15 -15 -15 -15 -15 -15 -16 -16 -18 -19 -19 -19 -19 -17 -16
-10 -10 -10 -10 -10 -10 -10 -10 -10 -10 -10 -11 -12 -12 -12 -12 -13 -13 -12 -12 -13 -13 -13 -14 -14 -14 -14 -14 -15 -15 -16 -16 -18 -17 -17 -16 -16 -17 -17 -18 -18 -18 -18 -18 -17
-11 -11 -10 -10 -10 -10 -10 -10 -10 -10 -11 -11 -12 -13 -13 -13 -13 -13 -13 -12 -13 -13 -13 -14 -14 -14 -15 -14 -14 -16 -17 -17 -16 -17 -16 -16 -16 -18 -17 -17 -17 -18 -18 -18 -17
-11 -11 -11 -11 -11 -11 -11 -11 -11 -11 -11 -11 -12 -13 -13 -13 -13 -13 -13 -13 -13 -13 -13 -13 -15 -15 -15 -15 -15 -15 -17 -17 -17 -16 -15 -17 -17 -19 -18 -17 -18 -18 -19 -19 -18
-11 -11 -11 -11 -11 -11 -11 -11 -11 -11 -12 -12 -12 -13 -13 -13 -14 -13 -13 -13 -13 -13 -14 -14 -13 -15 -16 -15 -15 -16 -17 -17 -17 -17 -17 -18 -17 -18 -19 -17 -18 -18 -19 -19 -19
-12 -12 -12 -12 -12 -12 -11 -11 -11 -11 -12 -12 -13 -13 -13 -13 -14 -14 -14 -13 -13 -13 -14 -14 -14 -14 -15 -15 -16 -16 -16 -17 -17 -17 -17 -16 -18 -18 -18 -18 -18 -18 -19 -19 -19
-12 -12 -12 -12 -12 -12 -12 -11 -12 -12 -12 -13 -13 -14 -14 -14 -14 -14 -15 -14 -14 -14 -14 -14 -14 -14 -14 -15 -15 -16 -17 -18 -18 -18 -18 -18 -17 -18 -18 -18 -18 -18 -18 -19 -18
-13 -13 -13 -12 -12 -12 -12 -12 -12 -12 -13 -14 -14 -14 -14 -14 -14 -15 -15 -15 -15 -14 -14 -14 -14 -14 -14 -15 -14 -15 -16 -16 -17 -17 -17 -18 -17 -17 -17 -17 -18 -18 -17 -18 -18
-13 -13 -13 -13 -13 -13 -13 -13 -12 -12 -13 -14 -14 -14 -14 -15 -15 -14 -15 -15 -15 -15 -15 -14 -14 -15 -15 -16 -15 -15 -16 -16 -16 -16 -17 -16 -17 -18 -17 -17 -17 -18 -18 -18 -18
-13 -12 -13 -13 -13 -13 -13 -13 -13 -13 -13 -14 -14 -14 -15 -14 -15 -15 -15 -15 -15 -15 -15 -15 -14 -15 -14 -15 -15 -15 -15 -15 -16 -16 -16 -16 -17 -18 -17 -17 -17 -16 -17 -18 -18
-13 -13 -13 -13 -13 -13 -13 -13 -14 -13 -14 -15 -15 -15 -15 -15 -15 -15 -15 -15 -15 -15 -15 -15 -15 -15 -14 -15 -15 -15 -15 -15 -16 -16 -17 -17 -17 -17 -17 -16 -16 -17 -16 -17 -18
-14 -13 -13 -13 -13 -14 -15 -15 -15 -14 -14 -15 -15 -15 -15 -15 -15 -15 -15 -15 -15 -15 -16 -15 -15 -15 -14 -15 -15 -15 -15 -15 -15 -16 -16 -17 -18 -17 -17 -17 -17 -17 -16 -17 -17
Height
5866 5864 5862 5859 5858 5856 5855 5854 5854 5853 5852 5850 5849 5847 5845 5844 5843 5841 5839 5838 5836 5834 5832 5831 5830 5829 5828 5828 5828 5827 5827 5827 5826 5826 5819 5825 5827 5823 5823 5825 5828 5833 5843 5843 5846
5865 5863 5860 5858 5856 5855 5854 5854 5853 5851 5850 5848 5847 5845 5843 5841 5838 5835 5834 5832 5830 5828 5826 5824 5823 5822 5821 5819 5818 5817 5819 5817 5817 5817 5809 5812 5815 5815 5813 5813 5817 5821 5829 5832 5834
5865 5863 5861 5859 5857 5855 5854 5853 5852 5850 5848 5846 5843 5841 5839 5836 5834 5832 5829 5827 5824 5822 5820 5818 5816 5814 5812 5810 5809 5807 5806 5806 5806 5806 5801 5799 5804 5804 5803 5802 5802 5810 5815 5820 5822
5864 5863 5861 5859 5858 5856 5854 5852 5850 5848 5846 5844 5841 5838 5835 5832 5830 5826 5823 5819 5816 5814 5812 5809 5806 5804 5801 5799 5798 5796 5794 5794 5793 5794 5792 5790 5792 5795 5793 5793 5790 5795 5800 5807 5813
5864 5863 5861 5859 5857 5855 5852 5850 5848 5846 5843 5841 5838 5835 5832 5828 5824 5819 5815 5811 5809 5807 5804 5801 5798 5794 5791 5789 5787 5786 5784 5783 5782 5782 5782 5779 5779 5781 5783 5781 5780 5782 5784 5792 5800
5863 5862 5860 5858 5856 5853 5851 5848 5845 5843 5840 5837 5833 5830 5826 5822 5817 5812 5808 5805 5802 5798 5795 5792 5788 5786 5784 5781 5779 5776 5773 5770 5771 5770 5769 5770 5767 5768 5770 5770 5770 5771 5775 5776 5786
5862 5861 5858 5856 5854 5851 5848 5846 5842 5839 5835 5832 5828 5823 5820 5816 5810 5805 5801 5798 5793 5789 5786 5783 5781 5779 5776 5773 5770 5765 5764 5760 5760 5760 5759 5758 5758 5756 5758 5759 5761 5761 5763 5766 5771
5860 5858 5856 5854 5851 5849 5846 5843 5839 5835 5831 5827 5823 5818 5813 5808 5802 5799 5794 5790 5786 5782 5779 5776 5773 5772 5769 5766 5762 5758 5755 5752 5750 5750 5752 5750 5751 5747 5747 5747 5751 5751 5751 5756 5759
5858 5856 5854 5851 5848 5845 5842 5839 5836 5831 5827 5823 5818 5812 5808 5803 5798 5793 5789 5784 5779 5775 5772 5769 5768 5765 5761 5758 5754 5751 5748 5746 5745 5743 5743 5743 5743 5739 5740 5739 5740 5742 5742 5743 5748
5856 5853 5851 5848 5845 5842 5838 5835 5831 5826 5822 5817 5812 5808 5803 5798 5793 5789 5785 5780 5776 5772 5768 5763 5761 5759 5754 5750 5748 5743 5740 5739 5737 5736 5736 5735 5734 5733 5729 5729 5729 5729 5731 5734 5738
5853 5850 5848 5845 5842 5838 5834 5830 5827 5823 5816 5811 5806 5801 5797 5793 5789 5784 5780 5776 5771 5768 5765 5761 5756 5751 5746 5742 5739 5735 5732 5731 5730 5729 5728 5728 5726 5723 5718 5716 5716 5718 5718 5722 5730
5850 5847 5844 5841 5838 5834 5830 5825 5821 5817 5812 5806 5802 5798 5793 5789 5784 5780 5776 5772 5767 5764 5760 5758 5753 5748 5742 5736 5730 5726 5723 5723 5722 5721 5721 5720 5719 5713 5708 5704 5703 5704 5705 5708 5718
5847 5844 5841 5837 5834 5830 5825 5821 5816 5811 5807 5802 5797 5792 5788 5785 5780 5776 5772 5767 5763 5759 5756 5752 5748 5743 5737 5731 5725 5720 5716 5716 5715 5713 5712 5711 5712 5701 5697 5693 5687 5686 5687 5692 5702
5844 5840 5837 5834 5831 5825 5820 5815 5811 5805 5801 5797 5791 5787 5784 5778 5775 5770 5766 5763 5759 5755 5751 5748 5742 5737 5731 5726 5721 5717 5713 5710 5708 5707 5705 5701 5701 5692 5685 5679 5673 5669 5673 5677 5687
5839 5836 5833 5828 5825 5820 5816 5811 5806 5801 5796 5792 5786 5781 5777 5775 5769 5764 5761 5757 5754 5751 5748 5742 5735 5729 5724 5719 5715 5711 5708 5705 5703 5701 5697 5693 5689 5686 5673 5666 5663 5659 5661 5665 5673
5834 5831 5828 5824 5820 5815 5810 5805 5801 5797 5789 5785 5780 5776 5772 5768 5764 5760 5757 5753 5750 5747 5742 5736 5728 5723 5719 5714 5708 5703 5700 5698 5695 5693 5690 5684 5679 5674 5667 5660 5656 5653 5653 5656 5662
5830 5826 5823 5819 5814 5809 5805 5801 5797 5790 5785 5780 5774 5770 5767 5764 5759 5756 5753 5749 5745 5741 5736 5733 5724 5718 5714 5710 5704 5697 5693 5691 5691 5689 5687 5677 5672 5664 5659 5654 5652 5648 5647 5649 5654
5824 5820 5816 5812 5808 5803 5799 5796 5791 5786 5779 5774 5769 5765 5761 5759 5756 5751 5748 5744 5740 5735 5731 5727 5719 5711 5707 5704 5699 5693 5689 5686 5681 5680 5676 5671 5665 5661 5654 5650 5645 5642 5641 5643 5645
5817 5813 5810 5806 5801 5797 5794 5789 5784 5779 5774 5769 5764 5761 5757 5753 5750 5747 5741 5738 5734 5730 5727 5721 5717 5708 5702 5697 5693 5688 5685 5681 5676 5672 5665 5662 5658 5652 5647 5644 5640 5637 5634 5633 5637
5811 5808 5804 5800 5795 5792 5788 5783 5777 5773 5767 5762 5757 5754 5750 5747 5743 5739 5734 5732 5728 5725 5720 5716 5711 5706 5698 5693 5688 5683 5679 5675 5670 5665 5659 5658 5652 5646 5642 5638 5635 5633 5630 5627 5629
5804 5801 5798 5794 5790 5786 5781 5776 5771 5766 5761 5757 5751 5747 5743 5740 5737 5734 5729 5725 5722 5717 5714 5710 5706 5702 5695 5688 5683 5677 5673 5667 5664 5660 5652 5647 5648 5640 5637 5634 5631 5629 5627 5625 5623
5797 5793 5789 5786 5784 5778 5774 5769 5765 5759 5754 5749 5745 5741 5736 5732 5730 5726 5723 5718 5715 5710 5707 5704 5700 5695 5690 5686 5678 5672 5666 5662 5655 5652 5646 5641 5638 5634 5629 5626 5624 5622 5621 5620 5618
5789 5786 5783 5778 5775 5770 5766 5762 5757 5752 5746 5741 5737 5732 5729 5725 5721 5720 5716 5713 5709 5704 5699 5697 5693 5688 5683 5677 5671 5665 5660 5653 5647 5642 5640 5635 5635 5627 5625 5620 5617 5615 5613 5612 5613
5777 5775 5774 5769 5765 5761 5757 5753 5749 5744 5738 5733 5729 5724 5721 5718 5713 5712 5708 5705 5702 5695 5692 5688 5687 5682 5679 5674 5667 5660 5654 5647 5640 5632 5629 5630 5624 5624 5616 5612 5609 5606 5605 5606 5605
5766 5764 5761 5758 5754 5751 5747 5743 5739 5734 5729 5724 5720 5715 5712 5709 5704 5704 5699 5695 5695 5689 5684 5680 5678 5673 5671 5666 5660 5654 5648 5641 5634 5628 5621 5621 5619 5613 5611 5606 5600 5596 5595 5597 5598
5754 5753 5751 5748 5744 5740 5736 5733 5728 5723 5720 5715 5711 5707 5702 5699 5694 5693 5692 5687 5686 5683 5677 5673 5670 5665 5664 5658 5654 5647 5641 5634 5628 5623 5616 5612 5612 5605 5604 5596 5591 5588 5588 5591 5590
5744 5742 5739 5737 5732 5727 5724 5720 5716 5712 5710 5705 5701 5698 5695 5688 5685 5683 5681 5681 5675 5673 5670 5665 5660 5656 5654 5649 5645 5640 5634 5628 5622 5616 5609 5606 5604 5600 5598 5591 5584 5583 5582 5584 5583
Wind_Speed
11 12 12 11 8 8 8 6 8 8 7 6 6 7 11 13 13 13 13 15 16 18 20 22 22 24 25 26 28 30 32 32 34 34 40 36 38 44 46 46 46 46 41 42 44
11 11 12 10 8 7 6 5 7 8 8 9 11 13 14 15 17 18 18 21 23 24 25 26 28 28 29 31 32 33 32 35 35 35 42 41 39 43 46 48 48 48 47 49 48
9 9 13 16 14 13 10 9 8 8 8 9 11 13 16 20 22 24 26 28 29 30 31 31 33 34 35 36 37 37 37 36 37 36 40 44 40 44 46 48 51 48 49 53 54
5 7 8 11 13 12 12 12 13 13 13 14 15 17 20 25 29 30 32 33 34 33 32 32 33 35 37 37 38 37 38 38 39 38 41 41 39 39 45 47 51 49 49 51 54
3 4 6 8 11 12 13 16 16 14 14 16 18 21 24 27 29 33 35 35 34 34 33 33 33 33 35 36 36 34 34 34 36 36 37 40 42 41 41 45 50 49 49 49 52
4 4 6 6 10 12 15 19 20 20 21 21 24 27 30 33 34 37 38 37 36 33 30 30 29 29 30 31 31 32 34 36 35 36 38 39 41 41 38 44 46 48 47 48 48
9 10 10 11 13 14 16 19 23 23 24 27 27 30 33 36 37 38 39 37 38 36 33 30 30 29 29 29 30 32 32 33 33 34 36 34 35 38 36 38 39 45 46 46 43
11 11 11 13 15 16 19 20 24 25 27 28 31 33 36 36 36 38 38 38 37 36 33 31 31 29 30 31 30 29 29 29 27 23 21 21 20 27 28 35 37 40 43 43 43
15 16 15 16 20 20 21 23 24 27 29 32 35 36 35 33 34 34 34 33 36 37 35 33 28 31 32 31 32 30 27 22 19 20 21 22 24 31 28 31 37 42 44 41 41
20 19 20 20 22 22 24 25 27 29 32 35 37 36 33 33 32 31 28 29 31 31 32 31 31 30 32 32 34 34 27 25 23 22 21 24 28 31 34 35 36 43 49 48 40
22 22 23 21 24 27 28 30 31 32 36 37 37 35 33 33 32 31 31 29 29 28 24 28 32 34 34 34 34 33 28 27 27 26 27 27 29 35 40 42 42 39 49 54 47
22 22 20 22 24 27 29 31 33 37 38 37 35 31 33 31 31 31 29 28 24 23 26 29 32 33 34 36 36 31 27 25 29 29 30 30 25 36 40 45 47 48 46 54 52
19 20 21 22 26 30 31 31 34 38 38 37 35 34 32 30 29 29 27 25 22 22 26 30 31 32 34 34 30 25 25 20 22 27 27 26 27 34 38 43 49 49 49 52 53
18 23 25 27 30 33 36 35 37 38 35 36 37 34 29 28 27 26 26 25 24 25 28 30 33 32 33 32 27 21 19 21 26 25 29 33 33 38 36 42 42 47 45 46 52
22 25 28 30 32 36 36 36 38 39 40 37 35 32 28 26 25 25 25 26 25 25 29 35 35 34 34 34 32 24 25 26 26 26 31 33 36 33 35 34 30 37 43 42 49
27 28 30 32 35 37 37 37 39 39 39 38 34 28 25 24 23 22 24 23 23 25 27 28 33 33 32 34 34 32 26 26 27 29 30 29 33 30 21 25 25 20 25 36 43
29 30 33 34 36 38 39 39 41 41 40 38 33 25 23 20 20 20 21 20 22 26 26 24 28 31 31 31 33 29 28 24 18 22 23 30 36 26 26 29 24 20 19 26 35
32 34 35 35 36 37 39 40 41 41 38 36 33 26 25 21 18 20 21 22 21 24 28 26 26 32 32 31 32 25 22 23 29 25 31 32 32 19 23 24 28 30 30 25 31
32 34 35 34 36 37 38 40 40 41 39 38 32 25 24 23 24 21 24 24 24 25 27 28 21 27 30 33 33 29 25 24 29 31 36 29 33 28 24 23 26 27 27 24 28
34 34 34 33 34 35 38 39 41 40 39 37 36 33 26 26 26 26 27 27 27 27 26 27 25 22 25 29 30 28 30 30 30 32 32 24 29 25 21 21 20 22 21 16 22
36 34 34 32 32 35 38 40 42 41 40 37 36 35 32 28 28 27 29 30 27 30 27 26 26 25 24 28 29 33 30 31 31 29 31 33 21 22 22 21 17 19 20 17 18
38 37 35 34 35 38 39 39 42 41 39 39 38 36 34 32 29 28 27 29 29 31 29 25 26 25 26 25 29 29 29 25 29 30 31 32 30 30 20 18 22 22 20 19 18
36 35 33 35 38 37 38 40 41 41 40 39 39 38 36 34 34 29 28 27 29 31 31 27 26 27 29 32 34 34 33 35 35 35 33 32 25 29 23 25 27 30 22 21 23
33 34 33 35 34 35 38 40 41 41 40 40 41 40 37 33 35 31 30 31 30 32 30 29 27 28 27 26 31 34 36 36 36 37 36 27 30 25 32 30 26 26 27 25 26
37 38 37 38 37 37 40 41 41 42 41 41 40 41 40 36 37 31 31 33 30 31 33 33 30 32 29 29 31 33 36 37 35 32 36 31 30 31 29 33 32 26 30 27 30
43 42 40 38 40 43 44 44 40 42 40 39 40 39 40 39 40 35 31 31 28 29 33 36 34 34 31 31 31 33 35 38 36 32 34 35 30 33 27 34 36 22 29 29 32
44 43 43 44 44 45 44 43 42 43 41 39 42 41 39 41 38 36 35 33 35 34 34 37 39 39 35 37 36 36 36 37 35 32 32 31 29 27 23 29 34 22 27 29 31
Wind_Direction
19 11 1 355 2 15 23 35 13 8 11 3 350 332 322 321 321 315 304 303 293 291 287 284 281 280 278 275 272 268 265 263 262 261 262 256 251 252 251 250 249 250 245 244 238
22 23 25 27 33 39 44 33 9 0 344 327 319 316 312 312 309 300 295 291 286 284 283 282 281 281 281 282 278 274 270 266 266 263 265 262 259 257 257 256 253 249 245 241 239
28 46 59 61 58 56 50 30 8 350 335 324 314 307 302 301 300 302 299 293 290 285 284 284 282 280 280 277 275 275 273 270 266 265 266 268 261 258 258 260 260 253 247 241 238
43 49 62 52 44 35 21 4 351 344 333 327 322 312 303 300 300 304 302 299 296 295 294 291 286 285 283 277 273 276 275 274 271 270 270 271 270 264 261 258 259 257 251 245 237
17 71 60 40 25 16 4 356 350 342 329 322 313 313 314 311 311 309 306 304 306 307 302 297 293 288 284 284 283 286 282 277 275 273 271 270 269 267 266 261 258 255 254 247 239
337 322 327 341 346 350 350 347 344 339 333 328 322 320 316 313 312 311 311 315 318 317 313 307 302 298 296 293 290 284 278 275 274 272 269 267 269 268 264 264 260 256 250 252 239
324 309 305 308 324 333 334 337 334 337 334 329 328 320 319 317 312 316 320 324 330 327 321 316 312 306 301 298 292 289 284 281 279 275 270 271 273 272 267 259 255 257 253 251 248
317 318 310 304 314 320 325 327 327 330 332 333 328 322 318 318 320 322 330 333 331 325 322 318 313 311 309 307 301 294 291 284 280 270 268 276 281 281 273 264 255 249 250 250 251
316 315 308 304 308 311 316 322 323 328 330 334 328 320 321 323 326 333 335 334 329 324 320 318 313 314 313 312 310 302 290 276 262 261 275 277 277 282 285 277 262 250 246 245 246
322 323 320 320 321 316 318 320 323 326 328 327 324 323 323 327 330 336 336 328 324 321 318 318 323 322 318 315 310 305 289 267 265 270 277 279 279 283 285 281 276 259 248 243 241
325 325 325 324 330 327 327 324 325 325 324 329 328 329 328 328 333 336 332 326 322 324 323 321 326 327 322 319 316 308 294 263 260 265 279 282 284 288 286 276 273 268 252 244 241
325 327 328 326 327 328 325 324 325 324 329 327 331 328 329 332 333 334 333 331 331 330 326 329 331 329 323 321 318 311 290 285 265 270 278 283 290 291 286 282 276 271 267 245 238
326 330 332 329 328 329 328 325 325 328 333 331 333 331 333 333 332 333 336 341 337 333 330 330 331 331 329 327 321 304 289 281 273 274 284 288 297 296 290 284 278 267 262 243 232
323 328 332 329 328 328 328 326 330 333 336 335 333 330 329 331 329 335 339 341 342 337 332 326 327 330 331 331 325 303 286 280 285 285 293 299 292 304 300 292 280 268 259 245 228
320 324 328 329 324 326 325 328 333 333 335 334 331 329 327 328 333 334 339 340 340 335 332 326 326 330 331 332 332 304 284 278 282 296 294 302 303 310 302 292 278 274 263 251 230
313 319 322 324 325 326 328 330 333 332 334 332 329 324 324 329 332 332 338 342 341 335 338 335 329 329 332 332 332 323 296 286 287 292 303 311 318 319 297 289 278 270 264 258 237
307 313 319 324 326 328 328 328 330 333 331 330 328 319 313 321 326 330 341 345 347 346 349 343 330 328 332 334 333 324 309 293 302 307 311 311 319 309 298 295 279 265 260 253 246
306 310 315 320 322 325 325 326 329 331 328 329 327 316 305 306 314 318 326 332 339 341 341 356 343 336 334 337 337 332 314 296 294 295 299 307 321 305 295 284 281 280 278 254 241
307 308 313 317 321 323 325 329 329 328 327 327 325 319 296 293 297 305 312 319 325 330 335 341 356 334 334 335 337 332 317 306 297 297 305 314 329 317 290 285 281 278 280 267 231
306 308 310 315 320 323 327 329 329 327 325 325 325 330 314 295 295 300 306 311 317 323 328 333 345 339 333 332 333 325 316 302 301 301 297 301 324 311 294 294 287 271 281 265 243
303 304 307 311 317 323 328 328 328 325 323 321 321 326 324 303 296 298 303 305 313 315 323 326 333 339 337 331 329 329 320 304 294 291 293 301 315 305 284 288 271 272 274 254 230
308 300 304 304 312 319 322 323 325 323 319 317 316 319 320 316 300 299 302 303 309 311 316 319 326 333 337 330 328 330 323 301 293 294 292 294 306 319 275 266 262 261 275 255 236
295 295 299 303 306 312 315 317 318 319 313 311 311 314 315 313 309 302 298 298 305 308 311 314 323 328 336 334 335 331 323 316 303 295 302 290 314 313 308 297 270 264 263 257 237
295 290 293 299 302 305 312 316 315 314 311 308 309 309 311 308 302 305 303 302 304 302 305 311 316 318 327 328 323 323 321 317 309 310 301 305 299 310 309 318 313 265 255 244 238
294 292 295 299 303 306 311 312 312 309 308 305 305 305 307 307 301 303 296 296 299 298 300 305 312 310 321 323 323 322 322 322 319 315 300 304 304 298 307 312 320 262 258 239 231
294 295 296 300 304 308 309 308 307 305 303 300 299 301 303 303 300 302 297 296 297 293 296 300 304 305 313 313 316 322 321 323 324 319 302 297 308 296 308 321 323 277 251 239 234
289 290 293 297 302 306 306 305 303 302 300 296 297 298 301 296 298 297 298 297 295 297 295 298 300 301 309 311 313 317 318 322 322 320 308 300 301 297 307 322 315 282 243 235 226